| |
Missouri Department of Transportation

Social Media Facebook Twitter Flickr Blog YouTube RSS

Current AWOS Information

 
AWOS Home - General Info for all Airports
Current AWOS for all Airports - Current METAR for all Airports
Glossary - Disclaimer - Other Links


SULLIVAN--SULLIVAN REGIONAL--KUUV
 
Recent AWOS History
 
11/23/14     11:32 PM CST      05:32 GMT
Air Temperature 54°F (12°C ) 1st Cloud Layer Clear
Dew Point 48°F (9°C) 2nd Cloud Layer  
Barometric Pressure 29.87 in Hg. 3rd Cloud Layer  
Wind Speed 11 mph (10 knots) Density Altitude  
Peak Wind Gusts 16 mph (14 knots) Variable Wind Directions  
Wind Direction Quadrant(170°) Variable Visibility  
Visibility 10 statute miles  

Thunderstorm and Precipitation Identification: 
Thunderstorm Remarks: 

Current METAR Record: METAR KUUV 230541Z AUTO 18009KT 10SM CLR 12/09 A2987 RMK AO2

 

 

 

About Us
How Do I...
Contact Us
Missouri Department of Transportation
Central Office
105 W. Capitol Avenue
Jefferson City, MO 65102
1-888-ASK-MODOT (275-6636)
1-866-831-6277 (Motor Carrier Services)
Drivers License Offices
horz_bar
| | |
Missouri State Government
© 2013 Missouri Department of Transportation. All Rights Reserved.   Privacy Policy.
 
 
 
 
RSS FeedYoutubeBlogFlickrTwitter Facebook